User: anonymous   Login
Location: Caltech
(34.1382°N, 118.1253°W)
Time: 10:30:42
(UTC-07:00)
Language:

RS-15 - Orbit

View from above orbital plane
View from above orbital plane
View from above satellite
View from above satellite

Ground track
Ground track

The orbit data is extracted from the following two-line orbital elements,

1 23439U 94085A   14302.14601523 -.00000029  00000-0  39276-3 0  7348
2 23439 064.8221 335.1062 0146946 056.5165 304.9678 11.27561277817095
Epoch (UTC): 29 October 2014 03:30:15
Eccentricity: 0.0146946
inclination: 64.8221°
perigee height: 1899 km
apogee height: 2146 km
right ascension of ascending node: 335.1062°
argument of perigee: 56.5165°
revolutions per day: 11.27561277
mean anomaly at epoch: 304.9678°
orbit number at epoch: 81709

The dashed part of the orbit path shows where the satellite is in the earth's shadow,  

DLR